{"data":{"norad_id":51994,"epoch":"2026-05-25T02:32:41.783424Z","epoch_age_seconds":56022,"freshness":"FRESH","line1":"1 51994U 22025AQ  26145.10603916 -.00008447  00000+0 -51264-3 0  9998","line2":"2 51994  53.2127  36.0742 0001738  91.8576 268.2615 15.08880470232454","mean_motion":15.0888047,"eccentricity":0.0001738,"inclination_deg":53.2127,"raan_deg":36.0742,"arg_perigee_deg":91.8576,"mean_anomaly_deg":268.2615,"bstar":-0.00051264,"rev_number":23245,"period_min":95.434994927067,"perigee_km":538.4173850163,"apogee_km":540.82199724213,"semimajor_km":6917.7566911292,"source":"CELESTRAK","updated_at":"2026-05-25T13:38:16.998468Z"}}